Home > Weather > Hartberg > Past weeks

Flag for Austria Past Weather in Hartberg, Styria, Austria — Yesterday and Last 2 Weeks

Now
75 °F

Passing clouds.


Feels Like: 78 °F
Forecast: 52 / 71 °F
Wind: 7 mph from South

Location: Graz-Thalerhof-Flughafen

Current Time: May 25, 2016 at 5:12:23 PM

Latest Report: May 25, 2016 at 4:20 PM


Visibility: N/A

Pressure: 29.83 "Hg

Humidity: 44%

Dew Point: 52 °F

Location of HartbergLocation

Past Weather in Hartberg — Graph

°F

Hartberg Temperature Yesterday

Maximum temperature yesterday: 66 °F (at 5:50 PM)
Minimum temperature yesterday: 50 °F (at 7:20 AM)
Average temperature yesterday: 57 °F

High & Low Weather Summary for the Past Weeks

 TemperatureHumidityPressure
High77 °F (May 22, 2:50 PM)100% (May 11, 12:50 AM)30.15 "Hg (May 11, 12:50 AM)
Low36 °F (May 16, 5:20 AM)34% (May 23, 3:50 PM)29.39 "Hg (May 13, 2:20 AM)
Average57 °F73%29.85 "Hg
* Reported May 10 3:20 PM — May 25 3:20 PM, Hartberg, Weather by CustomWeather, © 2016

Note: Actual official high and low records may vary slightly from our data, if they occured in-between our weather recording intervals... More about our weather records

Advertising

Hartberg Weather History for the Previous 24 Hours

Scroll right to see more
 ConditionsComfort  
Time TempWeatherWind HumidityBarometerVisibility
3:20 PM
Wed, May 25
75 °FPassing clouds.9 mph44%29.83 "HgN/A
2:50 PM75 °FPassing clouds.5 mph54%29.86 "HgN/A
2:20 PM75 °FPassing clouds.6 mph44%29.86 "HgN/A
1:50 PM75 °FPassing clouds.5 mph47%29.86 "HgN/A
1:20 PM73 °FPassing clouds.3 mph44%29.86 "HgN/A
12:50 PM73 °FPassing clouds.6 mph44%29.86 "HgN/A
12:20 PM73 °FPassing clouds.5 mph47%29.86 "HgN/A
11:50 AM73 °FPassing clouds.1 mph41%29.86 "HgN/A
11:20 AM72 °FPassing clouds.5 mph47%29.86 "HgN/A
10:50 AM70 °FPassing clouds.6 mph53%29.86 "HgN/A
10:20 AM68 °FPassing clouds.6 mph53%29.86 "HgN/A
9:50 AM66 °FPassing clouds.6 mph56%29.86 "HgN/A
9:20 AM64 °FPassing clouds.7 mph56%29.86 "HgN/A
8:50 AM64 °FPassing clouds.8 mph52%29.86 "HgN/A
8:20 AM64 °FPassing clouds.8 mph52%29.86 "HgN/A
7:50 AM63 °FPassing clouds.8 mph56%29.86 "HgN/A
7:20 AM63 °FPassing clouds.6 mph56%29.83 "HgN/A
6:50 AM61 °FPassing clouds.10 mph55%29.83 "HgN/A
6:20 AM59 °FPassing clouds.7 mph59%29.83 "HgN/A
5:50 AM59 °FPassing clouds.9 mph59%29.83 "HgN/A
5:20 AM59 °FPassing clouds.9 mph59%29.83 "HgN/A
4:50 AM59 °FPassing clouds.10 mph59%29.80 "HgN/A
4:20 AM59 °FPassing clouds.7 mph59%29.83 "HgN/A
3:50 AM59 °FPassing clouds.8 mph59%29.80 "HgN/A
3:20 AM59 °FPassing clouds.9 mph59%29.80 "HgN/A
2:50 AM59 °FPassing clouds.8 mph59%29.80 "HgN/A
2:20 AM59 °FPassing clouds.6 mph59%29.80 "HgN/A
1:50 AM59 °FPassing clouds.7 mph59%29.80 "HgN/A
1:20 AM59 °FPassing clouds.7 mph59%29.80 "HgN/A
12:50 AM57 °FPartly cloudy.6 mph63%29.80 "HgN/A
12:20 AM59 °FPartly cloudy.7 mph59%29.80 "HgN/A
11:50 PM
Tue, May 24
57 °FPassing clouds.6 mph63%29.83 "HgN/A
11:20 PM57 °FPassing clouds.7 mph63%29.83 "HgN/A
10:50 PM57 °FPassing clouds.7 mph59%29.83 "HgN/A
10:20 PM57 °FPassing clouds.8 mph59%29.80 "HgN/A
9:50 PM59 °FPassing clouds.8 mph55%29.83 "HgN/A
9:20 PM59 °FPartly sunny.9 mph55%29.80 "HgN/A
8:50 PM59 °FBroken clouds.10 mph55%29.80 "HgN/A
8:20 PM59 °FPartly sunny.8 mph55%29.80 "HgN/A
7:50 PM61 °FPartly sunny.6 mph55%29.77 "HgN/A
7:20 PM63 °FPartly sunny.10 mph49%29.77 "HgN/A
6:50 PM63 °FBroken clouds.13 mph52%29.77 "HgN/A
6:20 PM63 °FBroken clouds.13 mph52%29.77 "HgN/A
5:50 PM66 °FBroken clouds.7 mph49%29.77 "HgN/A
5:20 PM64 °FScattered clouds.6 mph56%29.77 "HgN/A
Weather by CustomWeather, © 2016

See weather overviewHow to use our weather pages